1513152000.27,50547,7.44,72870.8,-10.91,-11.59,-11.51,0,*62
1513152001.54,50548,7.44,72866.0,-10.91,-11.59,-11.45,0,*68
1513152002.81,50549,7.44,72866.0,-10.91,-11.45,-11.59,0,*69
1513152004.07,50550,7.44,72864.5,-10.93,-11.51,-11.59,0,*66
1513152005.34,50551,7.44,72858.5,-10.93,-11.59,-11.59,0,*6F
1513152006.59,50552,7.44,72862.8,-10.93,-11.51,-11.51,0,*6C
1513152007.88,50553,7.44,72860.0,-10.91,-11.51,-11.51,0,*6F
1513152009.17,50554,7.44,72860.3,-10.91,-11.59,-11.51,0,*60
1513152010.43,50555,7.44,72862.8,-10.93,-11.59,-11.51,0,*63
1513152011.7,50556,7.44,72864.0,-10.93,-11.59,-11.59,0,*68
1513152012.96,50557,7.44,72864.3,-10.93,-11.59,-11.51,0,*61
1513152014.23,50558,7.44,72866.5,-10.91,-11.59,-11.45,0,*69
1513152015.52,50559,7.44,72864.5,-10.91,-11.51,-11.55,0,*61
1513152016.81,50560,7.44,72864.8,-10.91,-11.51,-11.59,0,*67
1513152018.09,50561,7.44,72864.3,-10.91,-11.51,-11.59,0,*66
1513152019.34,50562,7.44,72868.0,-10.89,-11.55,-11.45,0,*65
1513152020.63,50563,7.44,72870.8,-10.91,-11.59,-11.51,0,*64
1513152021.92,50564,7.44,72864.3,-10.91,-11.51,-11.59,0,*63
1513152023.21,50565,7.44,72868.8,-10.91,-11.51,-11.59,0,*62
1513152024.5,50566,7.44,72868.8,-10.91,-11.59,-11.59,0,*69
1513152025.79,50567,7.44,72866.5,-10.91,-11.59,-11.59,0,*68
1513152027.08,50568,7.44,72868.0,-10.91,-11.59,-11.59,0,*67
1513152028.38,50569,7.44,72868.3,-10.91,-11.63,-11.59,0,*6F
1513152029.67,50570,7.44,72868.8,-10.91,-11.63,-11.59,0,*67
1513152030.96,50571,7.44,72868.3,-10.91,-11.59,-11.59,0,*6F
1513152032.25,50572,7.44,72868.0,-10.91,-11.51,-11.59,0,*64
1513152033.54,50573,7.44,72868.3,-10.91,-11.51,-11.59,0,*65
1513152034.8,50574,7.44,72864.8,-10.93,-11.59,-11.51,0,*60
1513152036.06,50575,7.44,72864.8,-10.93,-11.63,-11.51,0,*68
1513152037.33,50576,7.44,72864.3,-10.93,-11.63,-11.59,0,*63
1513152038.59,50577,7.44,72870.3,-10.93,-11.59,-11.63,0,*62
1513152039.89,50578,7.44,72870.5,-10.91,-11.59,-11.63,0,*6F
1513152041.19,50579,7.44,72864.8,-10.91,-11.59,-11.59,0,*67
1513152042.48,50580,7.44,72866.8,-10.91,-11.51,-11.59,0,*69
1513152043.77,50581,7.44,72864.0,-10.91,-11.59,-11.59,0,*60
1513152045.06,50582,7.44,72864.8,-10.91,-11.51,-11.59,0,*6B
1513152046.32,50583,7.44,72866.8,-10.89,-11.55,-11.55,0,*6B
1513152047.62,50584,7.44,72866.3,-10.91,-11.59,-11.59,0,*65
1513152048.91,50585,7.44,72866.5,-10.91,-11.59,-11.51,0,*6C
1513152050.2,50586,7.44,72864.8,-10.91,-11.59,-11.59,0,*67
1513152051.49,50587,7.44,72866.5,-10.91,-11.51,-11.51,0,*66
1513152052.78,50588,7.44,72866.8,-10.91,-11.63,-11.59,0,*60
1513152054.07,50589,7.44,72868.3,-10.91,-11.51,-11.59,0,*60
1513152055.36,50590,7.44,72868.0,-10.91,-11.59,-11.59,0,*60
1513152056.66,50591,7.44,72868.8,-10.91,-11.63,-11.63,0,*61
1513152057.95,50592,7.44,72870.0,-10.91,-11.59,-11.59,0,*62
1513152059.25,50593,7.44,72868.8,-10.91,-11.59,-11.51,0,*6B
1513152060.54,50594,7.44,72870.0,-10.91,-11.59,-11.59,0,*64
1513152061.83,50595,7.44,72864.8,-10.91,-11.59,-11.59,0,*65
1513152063.13,50596,7.44,72870.3,-10.91,-11.51,-11.63,0,*67
1513152064.43,50597,7.44,72868.5,-10.91,-11.59,-11.63,0,*6E
1513152065.69,50598,7.44,72868.0,-10.93,-11.63,-11.59,0,*63
1513152066.95,50599,7.44,72866.5,-10.93,-11.59,-11.59,0,*6B
1513152068.21,50600,7.44,72868.3,-10.93,-11.59,-11.59,0,*68
1513152069.48,50601,7.44,72866.8,-10.93,-11.59,-11.63,0,*60
1513152070.74,50602,7.44,72862.5,-10.93,-11.59,-11.59,0,*6A
1513152072.01,50603,7.44,72864.8,-10.93,-11.63,-11.63,0,*6B
1513152073.31,50604,7.44,72866.3,-10.91,-11.59,-11.59,0,*6E
1513152074.57,50605,7.44,72864.3,-10.93,-11.63,-11.63,0,*6D
1513152075.84,50606,7.44,72866.5,-10.93,-11.59,-11.59,0,*6E
1513152077.1,50607,7.44,72866.3,-10.93,-11.63,-11.59,0,*66
1513152078.37,50608,7.44,72866.5,-10.93,-11.63,-11.63,0,*60
1513152079.63,50609,7.44,72866.8,-10.93,-11.59,-11.59,0,*61
1513152080.89,50610,7.44,72868.8,-10.93,-11.51,-11.59,0,*61
1513152082.16,50611,7.44,72864.8,-10.93,-11.59,-11.63,0,*61
1513152083.45,50612,7.44,72862.5,-10.91,-11.63,-11.59,0,*60
1513152084.74,50613,7.44,72860.5,-10.91,-11.59,-11.59,0,*68
1513152086.04,50614,7.44,72866.8,-10.95,-11.63,-11.67,0,*6F
1513152087.31,50615,7.44,72862.0,-10.93,-11.63,-11.63,0,*6C
1513152088.58,50616,7.44,72856.8,-10.93,-11.63,-11.63,0,*6F
1513152089.85,50617,7.44,72860.5,-10.93,-11.59,-11.63,0,*67
1513152091.11,50618,7.44,72862.8,-10.93,-11.63,-11.63,0,*61
1513152092.38,50619,7.44,72858.3,-10.93,-11.63,-11.63,0,*60
1513152093.65,50620,7.44,72860.0,-10.93,-11.63,-11.63,0,*6A
1513152094.91,50621,7.44,72862.0,-10.93,-11.63,-11.59,0,*62
1513152096.18,50622,7.44,72860.0,-10.93,-11.59,-11.63,0,*61
1513152097.48,50623,7.44,72862.5,-10.91,-11.59,-11.63,0,*62
1513152098.77,50624,7.44,72864.0,-10.91,-11.59,-11.59,0,*6C
1513152100.03,50625,7.44,72864.0,-10.93,-11.51,-11.59,0,*67
1513152101.3,50626,7.44,72862.5,-10.93,-11.59,-11.59,0,*6C
1513152102.59,50627,7.44,72860.0,-10.95,-11.63,-11.63,0,*6B
1513152103.86,50628,7.44,72860.0,-10.93,-11.59,-11.63,0,*6B
1513152105.13,50629,7.44,72864.8,-10.93,-11.63,-11.59,0,*6A
1513152106.42,50630,7.44,72862.5,-10.91,-11.59,-11.59,0,*69
1513152107.71,50631,7.44,72860.8,-10.91,-11.63,-11.59,0,*61
1513152109.0,50632,7.44,72862.0,-10.91,-11.59,-11.51,0,*63
1513152110.27,50633,7.44,72862.0,-10.93,-11.59,-11.51,0,*60
1513152111.53,50634,7.44,72862.8,-10.93,-11.59,-11.59,0,*6F
1513152112.79,50635,7.44,72864.5,-10.93,-11.59,-11.59,0,*6E
1513152114.09,50636,7.44,72872.5,-10.95,-11.63,-11.63,0,*6B
1513152115.35,50637,7.44,72866.3,-10.93,-11.59,-11.59,0,*6C
1513152116.61,50638,7.44,72864.3,-10.93,-11.63,-11.51,0,*62
1513152117.87,50639,7.44,72866.0,-10.93,-11.59,-11.51,0,*6A
1513152119.17,50640,7.44,72866.0,-10.95,-11.63,-11.63,0,*6A
1513152120.43,50641,7.44,72866.3,-10.93,-11.59,-11.51,0,*65
1513152121.73,50642,7.44,72864.0,-10.95,-11.63,-11.55,0,*6D
1513152122.99,50643,7.44,72866.5,-10.93,-11.51,-11.59,0,*67
1513152124.23,50644,7.44,72866.8,-10.93,-11.63,-11.45,0,*6C
1513152125.47,50645,7.44,72864.8,-10.93,-11.63,-11.45,0,*6D
1513152126.73,50646,7.44,72860.8,-10.93,-11.59,-11.59,0,*6A
1513152127.99,50647,7.44,72858.5,-10.93,-11.59,-11.59,0,*6B
1513152129.25,50648,7.44,72862.5,-10.93,-11.59,-11.59,0,*64
1513152130.52,50649,7.44,72860.8,-10.93,-11.59,-11.59,0,*65
1513152131.77,50650,7.44,72864.0,-10.93,-11.51,-11.59,0,*65
1513152133.07,50651,7.44,72866.5,-10.95,-11.63,-11.67,0,*6E
1513152134.33,50652,7.44,72862.0,-10.93,-11.59,-11.59,0,*6F
1513152135.59,50653,7.44,72864.5,-10.93,-11.59,-11.59,0,*6E
1513152136.86,50654,7.44,72860.3,-10.93,-11.59,-11.59,0,*69
1513152138.13,50655,7.44,72860.3,-10.93,-11.59,-11.63,0,*61
1513152139.39,50656,7.44,72860.3,-10.93,-11.59,-11.63,0,*62
1513152140.69,50657,7.44,72854.0,-10.95,-11.67,-11.67,0,*6C
1513152141.96,50658,7.44,72860.3,-10.93,-11.63,-11.63,0,*65
1513152143.25,50659,7.44,72860.5,-10.95,-11.67,-11.63,0,*66
1513152144.52,50660,7.44,72862.3,-10.93,-11.59,-11.63,0,*67
1513152145.79,50661,7.44,72866.5,-10.93,-11.63,-11.63,0,*6F
1513152147.06,50662,7.44,72866.0,-10.93,-11.63,-11.63,0,*6C
1513152148.32,50663,7.44,72866.5,-10.93,-11.73,-11.63,0,*6C
1513152149.59,50664,7.44,72870.0,-10.93,-11.63,-11.73,0,*6B
1513152150.84,50665,7.44,72868.5,-10.93,-11.73,-11.73,0,*6B
1513152152.11,50666,7.44,72868.0,-10.93,-11.73,-11.63,0,*69
1513152153.4,50667,7.44,72864.8,-10.95,-11.67,-11.67,0,*6F
1513152154.69,50668,7.44,72862.5,-10.95,-11.67,-11.77,0,*61
1513152155.95,50669,7.44,72860.0,-10.93,-11.73,-11.73,0,*67
1513152157.21,50670,7.44,72864.0,-10.93,-11.73,-11.63,0,*6E
1513152158.5,50671,7.44,72868.5,-10.95,-11.77,-11.77,0,*68
1513152159.76,50672,7.44,72870.3,-10.93,-11.73,-11.73,0,*6D
1513152161.02,50673,7.44,72870.5,-10.93,-11.73,-11.63,0,*6D
1513152162.31,50674,7.44,72868.0,-10.95,-11.77,-11.67,0,*6C
1513152163.58,50675,7.44,72868.8,-10.93,-11.59,-11.63,0,*63
1513152164.84,50676,7.44,72864.8,-10.93,-11.63,-11.73,0,*68
1513152166.11,50677,7.44,72866.8,-10.93,-11.63,-11.59,0,*61
1513152167.4,50678,7.44,72866.8,-10.95,-11.67,-11.67,0,*61
1513152168.69,50679,7.44,72868.0,-10.95,-11.77,-11.67,0,*61
1513152169.99,50680,7.44,72864.5,-10.95,-11.67,-11.67,0,*66
1513152171.25,50681,7.44,72866.8,-10.93,-11.73,-11.63,0,*60
1513152172.52,50682,7.44,72864.8,-10.93,-11.63,-11.63,0,*62
1513152173.77,50683,7.44,72870.0,-10.93,-11.73,-11.73,0,*63
1513152175.04,50684,7.44,72870.5,-10.93,-11.63,-11.73,0,*65
1513152176.3,50685,7.44,72868.5,-10.93,-11.63,-11.59,0,*6C
1513152177.59,50686,7.44,72864.0,-10.95,-11.67,-11.67,0,*60
1513152178.89,50687,7.44,72866.8,-10.95,-11.77,-11.67,0,*60
1513152180.14,50688,7.44,72868.0,-10.93,-11.73,-11.77,0,*6C
1513152181.43,50689,7.44,72864.5,-10.95,-11.67,-11.81,0,*67
1513152182.69,50690,7.44,72866.0,-10.93,-11.63,-11.73,0,*60
1513152183.99,50691,7.44,72868.5,-10.95,-11.67,-11.67,0,*66
1513152185.25,50692,7.44,72866.3,-10.93,-11.63,-11.63,0,*63
1513152186.55,50693,7.44,72860.8,-10.95,-11.77,-11.63,0,*61
1513152187.81,50694,7.44,72860.0,-10.93,-11.73,-11.73,0,*65
1513152189.07,50695,7.44,72862.5,-10.93,-11.63,-11.73,0,*65
1513152190.36,50696,7.44,72856.8,-10.95,-11.77,-11.77,0,*61
1513152191.64,50697,7.44,72858.3,-10.95,-11.81,-11.81,0,*60
1513152192.93,50698,7.44,72862.0,-10.95,-11.81,-11.77,0,*66
1513152194.21,50699,7.44,72858.5,-10.95,-11.77,-11.81,0,*67
1513152195.5,50700,7.44,72856.8,-10.95,-11.77,-11.81,0,*66
1513152196.79,50701,7.44,72858.8,-10.95,-11.77,-11.77,0,*6E
1513152198.05,50702,7.44,72858.3,-10.93,-11.77,-11.73,0,*6F
1513152199.33,50703,7.44,72860.3,-10.95,-11.77,-11.77,0,*6C
1513152200.62,50704,7.44,72858.0,-10.95,-11.77,-11.77,0,*6B
1513152201.91,50705,7.44,72856.8,-10.95,-11.81,-11.77,0,*63
1513152203.17,50706,7.44,72862.8,-10.93,-11.77,-11.73,0,*6B
1513152204.45,50707,7.44,72862.5,-10.95,-11.81,-11.77,0,*61
1513152205.74,50708,7.44,72862.5,-10.95,-11.77,-11.81,0,*6E
1513152206.99,50709,7.44,72866.3,-10.97,-11.81,-11.81,0,*64
1513152208.28,50710,7.44,72866.5,-10.95,-11.81,-11.77,0,*67
1513152209.56,50711,7.44,72862.0,-10.95,-11.81,-11.81,0,*6F
1513152210.84,50712,7.44,72866.3,-10.95,-11.81,-11.77,0,*65
1513152212.13,50713,7.44,72868.3,-10.95,-11.81,-11.81,0,*6D
1513152213.41,50714,7.44,72864.0,-10.95,-11.81,-11.77,0,*63
1513152214.67,50715,7.44,72866.3,-10.97,-11.85,-11.85,0,*69
1513152215.93,50716,7.44,72864.3,-10.97,-11.81,-11.81,0,*6A
1513152217.22,50717,7.44,72866.0,-10.95,-11.77,-11.67,0,*68
1513152218.51,50718,7.44,72870.0,-10.95,-11.77,-11.77,0,*66
1513152219.79,50719,7.44,72864.8,-10.95,-11.81,-11.81,0,*67
1513152221.05,50720,7.44,72868.3,-10.97,-11.81,-11.85,0,*6B
1513152222.31,50721,7.44,72870.3,-10.97,-11.81,-11.81,0,*6E
1513152223.57,50722,7.44,72870.0,-10.97,-11.85,-11.81,0,*69
1513152224.86,50723,7.44,72868.5,-10.95,-11.77,-11.67,0,*6F
1513152226.15,50724,7.44,72866.0,-10.95,-11.77,-11.77,0,*69
1513152227.44,50725,7.44,72868.5,-10.95,-11.77,-11.77,0,*68
1513152228.7,50726,7.44,72870.3,-10.97,-11.85,-11.81,0,*6D
1513152229.98,50727,7.44,72864.5,-10.99,-11.81,-11.85,0,*62
1513152231.24,50728,7.44,72866.8,-10.97,-11.81,-11.81,0,*67
1513152232.49,50729,7.44,72866.5,-10.97,-11.81,-11.81,0,*66
1513152233.75,50730,7.44,72864.0,-10.97,-11.85,-11.81,0,*6A
1513152235.01,50731,7.44,72864.5,-10.97,-11.81,-11.81,0,*6F
1513152236.27,50732,7.44,72860.5,-10.97,-11.81,-11.67,0,*64
1513152237.56,50733,7.44,72862.0,-10.99,-11.81,-11.73,0,*6E
1513152238.82,50734,7.44,72860.3,-10.97,-11.85,-11.73,0,*63
1513152240.08,50735,7.44,72866.3,-10.97,-11.81,-11.73,0,*66
1513152241.36,50736,7.44,72864.5,-10.99,-11.81,-11.81,0,*66
1513152242.62,50737,7.44,72864.0,-10.97,-11.73,-11.67,0,*6C
1513152243.88,50738,7.44,72866.8,-10.97,-11.81,-11.73,0,*6B
1513152245.14,50739,7.44,72860.5,-10.97,-11.81,-11.73,0,*6A
1513152246.4,50740,7.44,72862.8,-10.97,-11.73,-11.73,0,*69
1513152247.66,50741,7.44,72862.0,-10.97,-11.73,-11.73,0,*68
1513152248.94,50742,7.44,72860.5,-10.99,-11.73,-11.81,0,*68
1513152250.23,50743,7.44,72856.5,-10.99,-11.73,-11.81,0,*69
1513152251.48,50744,7.44,72858.8,-10.97,-11.81,-11.81,0,*6D
1513152252.74,50745,7.44,72860.8,-10.97,-11.81,-11.81,0,*6C
1513152254.02,50746,7.44,72858.5,-10.99,-11.81,-11.81,0,*61
1513152255.28,50747,7.44,72866.0,-10.97,-11.81,-11.73,0,*63
1513152256.54,50748,7.44,72866.3,-10.97,-11.81,-11.73,0,*6C
1513152257.8,50749,7.44,72864.0,-10.97,-11.85,-11.73,0,*69
1513152259.06,50750,7.44,72864.5,-10.97,-11.85,-11.81,0,*6C
1513152260.32,50751,7.44,72860.8,-10.97,-11.81,-11.85,0,*6D
1513152261.6,50752,7.44,72864.0,-10.99,-11.81,-11.81,0,*64
1513152262.89,50753,7.44,72862.5,-10.99,-11.81,-11.85,0,*61
1513152264.14,50754,7.44,72860.8,-10.97,-11.73,-11.81,0,*61
1513152265.42,50755,7.44,72858.0,-10.99,-11.81,-11.81,0,*63
1513152266.71,50756,7.44,72860.0,-10.99,-11.85,-11.85,0,*60
1513152267.99,50757,7.44,72862.5,-10.99,-11.81,-11.81,0,*61
1513152269.27,50758,7.44,72862.8,-10.99,-11.81,-11.81,0,*6E
1513152270.56,50759,7.44,72866.3,-10.99,-11.85,-11.81,0,*6B
1513152271.82,50760,7.44,72860.8,-10.97,-11.85,-11.81,0,*6F
1513152273.1,50761,7.44,72862.5,-10.99,-11.85,-11.81,0,*60
1513152274.38,50762,7.44,72858.8,-10.99,-11.81,-11.81,0,*67
1513152275.66,50763,7.44,72862.8,-10.99,-11.81,-11.81,0,*66
1513152276.92,50764,7.44,72866.8,-10.97,-11.81,-11.81,0,*6F
1513152278.18,50765,7.44,72864.0,-10.97,-11.81,-11.85,0,*6A
1513152279.46,50766,7.44,72866.5,-10.99,-11.85,-11.81,0,*67
1513152280.74,50767,7.44,72858.5,-10.99,-11.81,-11.81,0,*62
1513152282.03,50768,7.44,72864.3,-10.99,-11.85,-11.85,0,*6D
1513152283.31,50769,7.44,72862.5,-10.99,-11.81,-11.81,0,*6C
1513152284.59,50770,7.44,72864.5,-10.99,-11.81,-11.85,0,*60
1513152285.88,50771,7.44,72868.3,-10.99,-11.85,-11.85,0,*65
1513152287.17,50772,7.44,72868.0,-10.99,-11.81,-11.85,0,*62
1513152288.45,50773,7.44,72866.3,-10.99,-11.81,-11.85,0,*63
1513152289.73,50774,7.44,72866.8,-10.99,-11.81,-11.85,0,*64
1513152291.02,50775,7.44,72866.8,-10.99,-11.85,-11.85,0,*61
1513152292.3,50776,7.44,72862.3,-10.99,-11.81,-11.81,0,*62
1513152293.59,50777,7.44,72862.3,-10.99,-11.85,-11.85,0,*63
1513152294.87,50778,7.44,72864.3,-10.99,-11.85,-11.81,0,*68
1513152296.16,50779,7.44,72862.3,-10.99,-11.81,-11.81,0,*6D
1513152297.44,50780,7.44,72860.8,-10.99,-11.85,-11.85,0,*6B
1513152298.73,50781,7.44,72862.5,-10.99,-11.85,-11.81,0,*6E
1513152300.01,50782,7.44,72860.5,-10.99,-11.85,-11.81,0,*6D
1513152301.3,50783,7.44,72860.0,-10.99,-11.81,-11.85,0,*6C
1513152302.55,50784,7.44,72860.3,-11.01,-11.81,-11.85,0,*6B
1513152303.82,50785,7.44,72858.8,-11.01,-11.85,-11.81,0,*6A
1513152305.07,50786,7.44,72862.3,-11.01,-11.81,-11.81,0,*6D
1513152306.34,50787,7.44,72856.5,-11.01,-11.85,-11.85,0,*6C
1513152307.59,50788,7.44,72854.8,-11.01,-11.85,-11.81,0,*67
1513152308.85,50789,7.44,72858.8,-11.01,-11.81,-11.81,0,*62
1513152310.11,50790,7.44,72858.5,-11.01,-11.81,-11.81,0,*6A
1513152311.4,50791,7.44,72858.0,-10.99,-11.85,-11.85,0,*6B
1513152312.65,50792,7.44,72860.3,-11.01,-11.81,-11.81,0,*68
1513152313.94,50793,7.44,72860.5,-11.03,-11.85,-11.81,0,*6F
1513152315.2,50794,7.44,72858.0,-11.01,-11.85,-11.85,0,*6E
1513152316.46,50795,7.44,72858.8,-11.01,-11.85,-11.81,0,*6B
1513152317.72,50796,7.44,72858.3,-11.01,-11.73,-11.81,0,*61
1513152318.98,50797,7.44,72856.0,-11.01,-11.73,-11.85,0,*64
1513152320.24,50798,7.44,72856.0,-11.01,-11.73,-11.81,0,*6F
1513152321.5,50799,7.44,72856.5,-11.01,-11.81,-11.81,0,*63
1513152322.79,50800,7.44,72854.8,-11.03,-11.77,-11.85,0,*63
1513152324.04,50801,7.44,72856.0,-11.01,-11.73,-11.81,0,*60
1513152325.3,50802,7.44,72854.8,-11.01,-11.85,-11.81,0,*6A
1513152326.56,50803,7.44,72860.8,-11.01,-11.81,-11.81,0,*6F
1513152327.82,50804,7.44,72858.8,-11.01,-11.81,-11.85,0,*6C
1513152329.08,50805,7.44,72856.8,-11.01,-11.85,-11.81,0,*6D
1513152330.34,50806,7.44,72858.5,-11.01,-11.81,-11.81,0,*6A
1513152331.6,50807,7.44,72860.5,-11.01,-11.81,-11.73,0,*66
1513152332.86,50808,7.44,72862.3,-11.01,-11.85,-11.81,0,*60
1513152334.15,50809,7.44,72860.3,-11.03,-11.85,-11.85,0,*67
1513152335.44,50810,7.44,72866.8,-11.03,-11.85,-11.85,0,*6F
1513152336.73,50811,7.44,72860.0,-11.03,-11.89,-11.89,0,*6E
1513152338.03,50812,7.44,72860.5,-11.03,-11.85,-11.89,0,*61
1513152339.29,50813,7.44,72860.0,-11.01,-11.85,-11.85,0,*6E
1513152340.55,50814,7.44,72860.5,-11.01,-11.89,-11.85,0,*65
1513152341.81,50815,7.44,72860.8,-11.01,-11.81,-11.81,0,*68
1513152343.1,50816,7.44,72862.3,-11.03,-11.85,-11.85,0,*69
1513152344.36,50817,7.44,72862.0,-11.01,-11.81,-11.81,0,*6A
1513152345.61,50818,7.44,72860.8,-11.01,-11.81,-11.81,0,*65
1513152346.87,50819,7.44,72866.8,-11.01,-11.81,-11.81,0,*64
1513152348.16,50820,7.44,72860.3,-11.03,-11.85,-11.85,0,*6C
1513152349.45,50821,7.44,72860.8,-11.03,-11.85,-11.85,0,*6D
1513152350.71,50822,7.44,72858.0,-11.01,-11.81,-11.81,0,*6C
1513152352.0,50823,7.44,72860.8,-11.03,-11.85,-11.85,0,*6F
1513152353.26,50824,7.44,72862.3,-11.01,-11.81,-11.67,0,*62
1513152354.55,50825,7.44,72860.8,-11.03,-11.85,-11.85,0,*69
1513152355.84,50826,7.44,72858.5,-11.03,-11.85,-11.85,0,*6A
1513152357.13,50827,7.44,72860.8,-11.03,-11.85,-11.85,0,*6B
1513152358.42,50828,7.44,72860.0,-11.03,-11.85,-11.77,0,*69
1513152359.71,50829,7.44,72856.8,-11.03,-11.85,-11.89,0,*69
1513152360.97,50830,7.44,72862.3,-11.01,-11.73,-11.73,0,*6F
1513152362.26,50831,7.44,72860.0,-11.03,-11.77,-11.85,0,*61
1513152363.55,50832,7.44,72856.3,-11.03,-11.77,-11.77,0,*6F
1513152364.84,50833,7.44,72858.0,-11.03,-11.77,-11.77,0,*6E
1513152366.13,50834,7.44,72856.5,-11.03,-11.85,-11.77,0,*64
1513152367.42,50835,7.44,72858.8,-11.03,-11.77,-11.85,0,*65
1513152368.68,50836,7.44,72860.3,-11.01,-11.73,-11.81,0,*64
1513152369.96,50837,7.44,72856.8,-11.03,-11.85,-11.77,0,*67
1513152371.25,50838,7.44,72856.0,-11.03,-11.85,-11.77,0,*68
1513152372.54,50839,7.44,72856.8,-11.03,-11.85,-11.77,0,*69
1513152373.8,50840,7.44,72854.8,-11.01,-11.73,-11.67,0,*6D
1513152375.09,50841,7.44,72856.8,-11.03,-11.77,-11.77,0,*6B
1513152376.38,50842,7.44,72858.0,-11.03,-11.85,-11.77,0,*65
1513152377.64,50843,7.44,72856.8,-11.01,-11.73,-11.73,0,*6B
1513152378.93,50844,7.44,72858.8,-11.03,-11.77,-11.77,0,*6E
1513152380.22,50845,7.44,72860.8,-11.03,-11.77,-11.77,0,*6F
1513152381.51,50846,7.44,72860.3,-11.03,-11.77,-11.73,0,*68
1513152382.8,50847,7.44,72856.0,-11.03,-11.77,-11.77,0,*6D
1513152384.08,50848,7.44,72856.3,-11.03,-11.77,-11.77,0,*62
1513152385.37,50849,7.44,72858.3,-11.03,-11.77,-11.73,0,*67
1513152386.66,50850,7.44,72858.3,-11.03,-11.73,-11.77,0,*6F
1513152387.95,50851,7.44,72856.5,-11.03,-11.73,-11.73,0,*6A
1513152389.24,50852,7.44,72856.8,-11.03,-11.77,-11.73,0,*6D
1513152390.53,50853,7.44,72858.0,-11.03,-11.77,-11.77,0,*68
1513152391.81,50854,7.44,72856.8,-11.03,-11.73,-11.73,0,*6F
1513152393.1,50855,7.44,72856.8,-11.03,-11.77,-11.73,0,*6A
1513152394.39,50856,7.44,72858.8,-11.03,-11.77,-11.77,0,*6D
1513152395.68,50857,7.44,72858.8,-11.03,-11.85,-11.77,0,*61
1513152396.97,50858,7.44,72858.8,-11.03,-11.77,-11.77,0,*63
1513152398.26,50859,7.44,72858.8,-11.03,-11.77,-11.73,0,*66
1513152399.55,50860,7.44,72858.5,-11.03,-11.77,-11.77,0,*68
1513152400.81,50861,7.44,72858.8,-11.01,-11.67,-11.73,0,*6E
1513152402.1,50862,7.44,72856.5,-11.03,-11.73,-11.77,0,*6E
1513152403.39,50863,7.44,72862.5,-11.03,-11.73,-11.73,0,*6B
1513152404.65,50864,7.44,72856.0,-11.01,-11.73,-11.73,0,*6E
1513152405.94,50865,7.44,72856.0,-11.03,-11.77,-11.73,0,*69
1513152407.2,50866,7.44,72862.0,-11.01,-11.73,-11.67,0,*69
1513152408.49,50867,7.44,72860.0,-11.03,-11.77,-11.77,0,*6F
1513152409.78,50868,7.44,72858.3,-11.03,-11.73,-11.73,0,*60
1513152411.06,50869,7.44,72858.3,-11.03,-11.73,-11.73,0,*61
1513152412.33,50870,7.44,72856.3,-11.05,-11.77,-11.77,0,*6F
1513152413.59,50871,7.44,72856.5,-11.05,-11.77,-11.77,0,*6E
1513152414.88,50872,7.44,72856.5,-11.03,-11.77,-11.77,0,*6B
1513152416.17,50873,7.44,72862.5,-11.03,-11.77,-11.85,0,*67
1513152417.43,50874,7.44,72856.5,-11.01,-11.77,-11.73,0,*6B
1513152418.72,50875,7.44,72862.3,-11.03,-11.77,-11.77,0,*6C
1513152420.01,50876,7.44,72858.0,-11.03,-11.73,-11.73,0,*6F
1513152421.28,50877,7.44,72862.5,-11.05,-11.77,-11.77,0,*68
1513152422.54,50878,7.44,72860.8,-11.05,-11.77,-11.73,0,*63
1513152423.8,50879,7.44,72862.8,-11.05,-11.73,-11.77,0,*62
1513152425.09,50880,7.44,72860.5,-11.03,-11.77,-11.73,0,*62
1513152426.38,50881,7.44,72862.3,-11.03,-11.73,-11.73,0,*67
1513152427.67,50882,7.44,72862.3,-11.03,-11.77,-11.73,0,*60
1513152428.96,50883,7.44,72862.5,-11.03,-11.77,-11.77,0,*65
1513152430.22,50884,7.44,72862.0,-11.01,-11.73,-11.73,0,*60
1513152431.51,50885,7.44,72862.8,-11.03,-11.73,-11.73,0,*63
1513152432.77,50886,7.44,72860.0,-11.01,-11.73,-11.59,0,*6A
1513152434.06,50887,7.44,72864.0,-11.03,-11.77,-11.73,0,*65
1513152435.35,50888,7.44,72862.5,-11.03,-11.73,-11.73,0,*6E
1513152436.61,50889,7.44,72864.8,-11.05,-11.73,-11.77,0,*6D
1513152437.87,50890,7.44,72860.0,-11.05,-11.73,-11.77,0,*65
1513152439.13,50891,7.44,72862.5,-11.05,-11.77,-11.77,0,*60
1513152440.4,50892,7.44,72862.0,-11.05,-11.81,-11.73,0,*6E
1513152441.66,50893,7.44,72860.5,-11.05,-11.77,-11.77,0,*62
1513152442.95,50894,7.44,72864.0,-11.03,-11.77,-11.77,0,*63
1513152444.24,50895,7.44,72864.0,-11.03,-11.77,-11.73,0,*66
1513152445.53,50896,7.44,72864.3,-11.03,-11.77,-11.77,0,*61
1513152446.82,50897,7.44,72866.5,-11.03,-11.73,-11.73,0,*60
1513152448.11,50898,7.44,72868.5,-11.03,-11.77,-11.73,0,*6B
1513152449.4,50899,7.44,72862.8,-11.03,-11.77,-11.73,0,*6A
1513152450.66,50900,7.44,72866.0,-11.05,-11.73,-11.77,0,*6D
1513152451.95,50901,7.44,72864.3,-11.03,-11.73,-11.73,0,*6E
1513152453.21,50902,7.44,72864.0,-11.05,-11.73,-11.77,0,*6F
1513152454.5,50903,7.44,72864.3,-11.03,-11.77,-11.73,0,*68
1513152455.79,50904,7.44,72864.8,-11.03,-11.77,-11.77,0,*6B
1513152457.07,50905,7.44,72866.5,-11.03,-11.73,-11.77,0,*6E
1513152458.36,50906,7.44,72866.0,-11.03,-11.77,-11.77,0,*69
1513152459.63,50907,7.44,72862.8,-11.05,-11.77,-11.77,0,*6E
1513152460.89,50908,7.44,72860.8,-11.05,-11.73,-11.77,0,*65
1513152462.15,50909,7.44,72862.0,-11.05,-11.77,-11.77,0,*60
1513152463.43,50910,7.44,72866.0,-11.09,-11.77,-11.81,0,*6D
1513152464.71,50911,7.44,72862.3,-11.09,-11.81,-11.81,0,*65
1513152465.98,50912,7.44,72862.8,-11.09,-11.81,-11.81,0,*66
1513152467.24,50913,7.44,72860.8,-11.05,-11.73,-11.77,0,*6F
1513152468.51,50914,7.44,72862.0,-11.05,-11.73,-11.73,0,*6C
1513152469.77,50915,7.44,72860.5,-11.05,-11.77,-11.77,0,*6D
1513152471.04,50916,7.44,72862.0,-11.05,-11.77,-11.77,0,*6E
1513152472.31,50917,7.44,72860.5,-11.05,-11.77,-11.73,0,*6B
1513152473.57,50918,7.44,72860.3,-11.05,-11.73,-11.77,0,*64
1513152474.86,50919,7.44,72862.3,-11.03,-11.77,-11.73,0,*63
1513152476.15,50920,7.44,72866.3,-11.03,-11.77,-11.73,0,*69
1513152477.43,50921,7.44,72860.3,-11.03,-11.77,-11.77,0,*6C
1513152478.7,50922,7.44,72858.5,-11.05,-11.73,-11.73,0,*69
1513152479.96,50923,7.44,72860.5,-11.05,-11.77,-11.77,0,*68
1513152481.23,50924,7.44,72856.3,-11.05,-11.77,-11.77,0,*6F
1513152482.51,50925,7.44,72860.0,-11.03,-11.73,-11.77,0,*6C
1513152483.79,50926,7.44,72864.0,-11.09,-11.81,-11.81,0,*61
1513152485.05,50927,7.44,72862.8,-11.05,-11.73,-11.77,0,*68
1513152486.31,50928,7.44,72860.8,-11.05,-11.73,-11.73,0,*63
1513152487.58,50929,7.44,72856.5,-11.05,-11.77,-11.77,0,*62
1513152488.87,50930,7.44,72860.0,-11.03,-11.77,-11.77,0,*6C
1513152490.16,50931,7.44,72858.5,-11.03,-11.77,-11.73,0,*69
1513152491.45,50932,7.44,72858.8,-11.03,-11.77,-11.77,0,*6E
1513152492.73,50933,7.44,72856.5,-11.03,-11.73,-11.77,0,*6B
1513152494.0,50934,7.44,72854.5,-11.05,-11.77,-11.73,0,*6A
1513152495.28,50935,7.44,72854.3,-11.03,-11.73,-11.77,0,*6D
1513152496.57,50936,7.44,72856.0,-11.03,-11.77,-11.73,0,*6E
1513152497.84,50937,7.44,72852.5,-11.05,-11.77,-11.77,0,*6D
1513152499.1,50938,7.44,72856.3,-11.05,-11.77,-11.77,0,*62
1513152500.37,50939,7.44,72852.5,-11.05,-11.77,-11.73,0,*67
1513152501.63,50940,7.44,72858.5,-11.05,-11.77,-11.77,0,*6D
1513152502.9,50941,7.44,72854.5,-11.05,-11.77,-11.77,0,*6C
1513152504.16,50942,7.44,72858.3,-11.05,-11.73,-11.77,0,*6B
1513152505.43,50943,7.44,72852.0,-11.05,-11.77,-11.77,0,*6E
1513152506.71,50944,7.44,72858.5,-11.09,-11.81,-11.89,0,*6D
1513152507.97,50945,7.44,72852.3,-11.05,-11.77,-11.85,0,*65
1513152509.24,50946,7.44,72854.0,-11.05,-11.77,-11.77,0,*6B